Regional Weather Roundup
Issued by NWS

Home | Current Version | Previous Version | Text Only | Print | Product List | Glossary On
Versions: 1 2 3 4 5 6 7 8 9 10 11 12 13 14 15 16 17 18 19 20 21 22 23 24 25 26 27 28 29 30 31 32 33 34 35 36 37 38 39 40 41 42 43 44 45 46 47 48 49 50
000
ASUS43 KLSX 302110
RWRMO

WEATHER SUMMARY FOR MISSOURI
NATIONAL WEATHER SERVICE SPRINGFIELD MO
400 PM CDT THU MAR 30 2017

NOTE: "FAIR" INDICATES FEW OR NO CLOUDS BELOW 12,000 FEET WITH NO
       SIGNIFICANT WEATHER AND/OR OBSTRUCTIONS TO VISIBILITY.
       CURRENT SKY AND/OR WEATHER CONDITIONS ARE NOT AVAILABLE FOR
       CHILLICOTHE AND FARMINGTON.

MOZ001>031-035>038-043-044-053-054-302200-
...NORTHERN AND WESTERN MISSOURI...

CITY           SKY/WX    TMP DP  RH WIND       PRES   REMARKS
KANSAS CTY INT LGT RAIN  48  47  96 N9        29.61R VSB 1
KANSAS C DTWN  CLOUDY    50  47  89 NW9       29.60R
LEE`S SUMMIT   CLOUDY    53  47  79 N7        29.59R
ST JOSEPH      CLOUDY    47  46  97 N13       29.63R
CHILLICOTHE      N/A     49  47  93 N5        29.59S
KIRKSVILLE     LGT RAIN  48  48 100 VRB6      29.57S

$$
MOZ066>068-077>081-088>096-101>105-302200-
...SOUTHWEST MISSOURI...

CITY           SKY/WX    TMP DP  RH WIND       PRES   REMARKS
SPRINGFIELD    LGT RAIN  48  45  89 SW17      29.62S FOG
JOPLIN         LGT RAIN  48  48 100 W17       29.65R FOG
BRANSON        CLOUDY    46  41  81 W13G22    29.67R

$$
MOZ032>034-039>042-045>050-055>058-069>072-302200-
...CENTRAL MISSOURI...

CITY           SKY/WX    TMP DP  RH WIND       PRES   REMARKS
COLUMBIA       CLOUDY    53  45  74 W9        29.58S
JEFFERSON CITY CLOUDY    56  42  59 SW12      29.58S
ROLLA          CLOUDY    51  43  74 SW13      29.58R
SEDALIA        LGT RAIN  50  48  93 SW14      29.59S FOG
WHITEMAN AFB   DRIZZLE   50  50 100 SW6       29.57S FOG
WARRENSBURG    CLOUDY    50  46  87 S6        29.58R
OSAGE BEACH    LGT RAIN  50  45  81 SW9G17    29.61

$$
MOZ051-052-059>065-302200-
...EAST CENTRAL MISSOURI...

CITY           SKY/WX    TMP DP  RH WIND       PRES   REMARKS
ST LOUIS INTL  PTSUNNY   64  52  64 W13       29.54R
SPIRIT OF STL  CLOUDY    60  51  72 W13       29.54R
ST CHARLES     PTSUNNY   62  53  72 W13       29.53S

$$
MOZ072>076-082>087-097>100-106>115-302200-
...SOUTH CENTRAL AND SOUTHEAST MISSOURI...

CITY           SKY/WX    TMP DP  RH WIND       PRES   REMARKS
CAPE GIRARDEAU SUNNY     68  52  56 SW25G35   29.54S
FARMINGTON     CLOUDY    63  48  58 W14G24    29.55R
POPLAR BLUFF   MOSUNNY   65  48  54 SW25G33   29.57R
WEST PLAINS    CLOUDY    53  42  66 SW13G20   29.64R

$$



USA.gov is the U.S. government's official web portal to all federal, state and local government web resources and services.